Louisville, KY

10:21 PM EST on December 09, 2016 (GMT -0500)
Bowman

Weather History for KLOU - September, 2013

Change the Weather History Date:

Wednesday, September 11, 2013

  Actual Average Record
Temperature  
Mean Temperature 81 °F 72 °F  
Max Temperature 89 °F 82 °F 95 °F (1952)
Min Temperature 73 °F 61 °F 36 °F (2000)
Degree Days  
Heating Degree Days 0 0  
Month to date heating degree days 0 0  
Since 1 July heating degree days 0 0  
Cooling Degree Days 16 7  
Month to date cooling degree days 134 95  
Year to date cooling degree days 1337 1334  
Growing Degree Days 31 (Base 50)    
Moisture  
Dew Point 71 °F    
Average Humidity 71    
Maximum Humidity 87    
Minimum Humidity 55    
Precipitation  
Precipitation T in 0.09 in 2.63 in (2014)
Month to date precipitation 1.47 1.07  
Year to date precipitation 38.53 32.61  
Sea Level Pressure  
Sea Level Pressure 30.12 in    
Wind  
Wind Speed 4 mph (SSW)    
Max Wind Speed 12 mph    
Max Gust Speed 16 mph    
Visibility 9 miles    
Events Rain    
T = Trace of Precipitation, MM = Missing Value Source: NWS Daily Summary

Daily Weather History Graph

Daily Weather History Graph

Search for Another Location

Airport or City:

Trip Planner

Search our weather history database for the weather conditions in past years. The results will help you decide how hot, cold, wet, or windy it might be!

Date:

Astronomy

Sep. 11, 2013 Rise Set
Actual Time 7:21 AM EDT 7:56 PM EDT
Civil Twilight 6:54 AM EDT 8:23 PM EDT
Nautical Twilight 6:23 AM EDT 8:54 PM EDT
Astronomical Twilight 5:50 AM EDT 9:26 PM EDT
Moon 1:43 PM EDT (9/11) 11:57 PM EDT (9/11)
Length of Visible Light 13h 28m
Length of Day
12h 35m
Waxing Crescent, 38% of the Moon is Illuminated
Sep 11
Waxing Crescent
Sep 12
First Quarter
Sep 19
Full
Sep 26
Last Quarter
Oct 4
New

Hourly Weather History & Observations

Time (EDT) Temp. Heat Index Dew Point Humidity Pressure Visibility Wind Dir Wind Speed Gust Speed Precip Events Conditions
12:53 AM 75.9 °F - 70.0 °F 82% 30.14 in 10.0 mi Calm Calm - N/A   Clear
1:53 AM 75.0 °F - 70.0 °F 84% 30.14 in 10.0 mi South 3.5 mph - N/A   Clear
2:53 AM 73.9 °F - 70.0 °F 87% 30.13 in 10.0 mi South 3.5 mph - N/A   Clear
3:53 AM 73.9 °F - 69.1 °F 85% 30.13 in 10.0 mi South 4.6 mph - N/A   Clear
4:53 AM 73.0 °F - 69.1 °F 87% 30.14 in 10.0 mi South 3.5 mph - N/A   Clear
5:53 AM 73.0 °F - 69.1 °F 87% 30.15 in 9.0 mi Calm Calm - N/A   Clear
6:53 AM 73.0 °F - 69.1 °F 87% 30.15 in 9.0 mi Calm Calm - N/A   Clear
7:53 AM 73.0 °F - 69.1 °F 87% 30.17 in 7.0 mi Calm Calm - N/A   Clear
8:53 AM 75.0 °F - 70.0 °F 84% 30.18 in 7.0 mi Calm Calm - N/A   Partly Cloudy
9:53 AM 78.1 °F - 70.0 °F 76% 30.18 in 8.0 mi SW 4.6 mph - N/A   Mostly Cloudy
10:53 AM 81.0 °F 84.9 °F 71.1 °F 72% 30.17 in 9.0 mi West 8.1 mph - N/A   Partly Cloudy
11:53 AM 80.1 °F 84.2 °F 73.0 °F 79% 30.16 in 6.0 mi SSW 4.6 mph - 0.00 in Rain Light Rain
12:53 PM 82.9 °F 88.8 °F 73.0 °F 72% 30.14 in 8.0 mi SSW 5.8 mph - 0.00 in   Mostly Cloudy
1:53 PM 82.9 °F 88.0 °F 72.0 °F 69% 30.13 in 8.0 mi South 4.6 mph - N/A   Scattered Clouds
2:53 PM 86.0 °F 92.2 °F 72.0 °F 63% 30.10 in 9.0 mi WSW 6.9 mph - N/A   Clear
3:53 PM 88.0 °F 92.9 °F 70.0 °F 55% 30.08 in 9.0 mi Calm Calm - N/A   Clear
4:53 PM 89.1 °F 96.0 °F 72.0 °F 57% 30.07 in 9.0 mi South 3.5 mph - N/A   Clear
5:53 PM 88.0 °F 93.8 °F 71.1 °F 57% 30.06 in 10.0 mi SSW 6.9 mph - N/A   Clear
6:53 PM 87.1 °F 92.8 °F 71.1 °F 59% 30.07 in 9.0 mi SSW 5.8 mph - N/A   Clear
7:53 PM 84.9 °F 90.7 °F 72.0 °F 65% 30.06 in 8.0 mi South 9.2 mph - N/A   Clear
8:53 PM 81.0 °F 85.2 °F 72.0 °F 74% 30.07 in 10.0 mi SSW 6.9 mph - N/A   Clear
9:53 PM 79.0 °F - 71.1 °F 77% 30.08 in 10.0 mi SW 4.6 mph - N/A   Clear
10:53 PM 78.1 °F - 70.0 °F 76% 30.07 in 9.0 mi South 5.8 mph - N/A   Clear
11:53 PM 75.9 °F - 70.0 °F 82% 30.06 in 9.0 mi South 3.5 mph - N/A   Clear